Location: *
(51.1248°S, 108.4023°W)
Time: 21:18:32
(UTC+00:00)

ISS - Visible Passes

Search period start: 21 September 2021 00:00
Search period end: 01 October 2021 00:00
Orbit: 419 x 423 km, 51.6° (Epoch: 21 September)

Date Brightness Start Highest point End Pass type
(mag) Time Alt. Az. Time Alt. Az. Time Alt. Az.
24 Sep -1.5 11:56:58 10° NNW 11:59:38 21° NE 12:02:18 10° E visible
25 Sep -1.1 11:10:55 10° N 11:12:55 15° NE 11:14:55 10° ENE visible
26 Sep -2.7 11:59:06 10° NW 12:02:22 40° NNE 12:05:40 10° E visible
27 Sep -2.2 11:13:56 20° NNW 11:15:34 30° NNE 11:18:38 10° E visible
28 Sep -1.8 10:28:52 21° NE 10:28:52 21° NE 10:31:30 10° E visible
28 Sep -3.5 12:01:52 10° WNW 12:05:15 71° NNE 12:08:44 10° E visible
29 Sep -0.7 09:43:45 11° ENE 09:43:45 11° ENE 09:44:08 10° ENE visible
29 Sep -3.3 11:16:44 27° NW 11:18:22 55° NNE 11:21:47 10° E visible
30 Sep -2.9 10:31:34 42° NNE 10:31:34 42° NNE 10:34:48 10° E visible
30 Sep -3.6 12:04:45 10° W 12:08:14 85° S 12:11:44 10° E visible
